C/2016 N4 ( MASTER )

Japanese version
Home page
Updated on February 7, 2017

---------------------------------------------------------------------

* Profile

Discovery Date July 15, 2016
Magnitude 16.8 mag
Discoverer Mobile Astronomical System of the Telescope-Robots (MASTER)

* Pictures

* Orbital Elements

Epoch 2017 Sept. 4.0 TT = JDT 2458000.5
T 2017 Sept. 16.58619 TT                                MPCW
q   3.1990550            (2000.0)            P               Q
z  +0.0001563      Peri.   55.95559     +0.58262646     -0.80666257
 +/-0.0000099      Node   354.03117     -0.14122824     +0.01972231
e   0.9995000      Incl.   72.55850     +0.80037553     +0.59068310
From 438 observations 2016 July 15-Nov. 11, mean residual 0".4.

* Finding Charts

* Magnitudes Graph

        m1 = 6.5 + 5 log d + 10.0 log r

---------------------------------------------------------------------

The orbital elements are published on M.P.E.C. 2016-V116.
The charts are made with StellaNavigator Ver.10 (AstroArts).
The magnitudes graphs are made with Comet for Windows.

---------------------------------------------------------------------

Copyright(C) Seiichi Yoshida (comet@aerith.net). All rights reserved.